Powrót do katalogu

COSMOS 2333

AktywnyMilitariaLEO
NORAD 24297·PAYLOAD·🇷🇺 Russia

Wystrzelony Sep 4, 1996 z Baikonur Cosmodrome

Loading…

Następne Przeloty (najbliższe 24 godziny)

TLE

ŚwieżeSource: Space-Track

Epoka: Sep 14, 2026, 22:29 UTC

1 24297U 96051A   26257.93711009  .00000324  00000-0  19601-3 0  9996
2 24297  70.9049 145.8090 0023821 184.0291 176.0643 14.13856093548984

Śledź COSMOS 2333 w czasie rzeczywistym z AllMySat

Download on the App Store